Cancun, Mexico

1:21 PM on May 27, 2017 (GMT +0000)
Cancun International

Weather History for MMUN - November, 2013

Change the Weather History Date:

Monday, November 4, 2013

  Actual Average Record
Temperature  
Mean Temperature 78 °F -  
Max Temperature 84 °F 83 °F 89 °F (2003)
Min Temperature 73 °F 68 °F 60 °F (2000)
Cooling Degree Days 14    
Growing Degree Days 28 (Base 50)    
Moisture  
Dew Point 72 °F    
Average Humidity 80    
Maximum Humidity 94    
Minimum Humidity 66    
Precipitation  
Precipitation 0.15 in - - ()
Sea Level Pressure  
Sea Level Pressure 29.94 in    
Wind  
Wind Speed 6 mph ()    
Max Wind Speed 12 mph    
Max Gust Speed -    
Visibility 6.4 miles    
Events Rain    
Averages and records for this station are not official NWS values.
T = Trace of Precipitation, MM = Missing Value Source: Averaged Metar Reports

Daily Weather History Graph

Daily Weather History Graph

Search for Another Location

Airport or City:

Trip Planner

Search our weather history database for the weather conditions in past years. The results will help you decide how hot, cold, wet, or windy it might be!

Date:

Astronomy

Nov. 04, 2013 Rise Set
Actual Time 5:51 AM CST 5:10 PM CST
Civil Twilight 5:28 AM CST 5:32 PM CST
Nautical Twilight 5:02 AM CST 5:59 PM CST
Astronomical Twilight 4:36 AM CST 6:25 PM CST
Moon 6:54 AM CST (11/4) 6:22 PM CST (11/4)
Length of Visible Light 12h 04m
Length of Day
11h 18m
New Moon, 2% of the Moon is Illuminated
Nov 4
New Moon
Nov 9
First Quarter
Nov 17
Full
Nov 25
Last Quarter
Dec 2
New

Hourly Weather History & Observations

Time (CST) Temp. Heat Index Dew Point Humidity Pressure Visibility Wind Dir Wind Speed Gust Speed Precip Events Conditions
12:45 AM 75.2 °F - 71.6 °F 89% 29.93 in 5.0 mi ESE 5.8 mph - N/A Rain Light Rain
1:44 AM 75.2 °F - 69.8 °F 83% 29.92 in 5.0 mi NE 9.2 mph - N/A Rain Light Rain
2:46 AM 73.4 °F - 69.8 °F 88% 29.89 in 5.0 mi NW 5.8 mph - N/A Rain Light Rain
3:45 AM 73.4 °F - 71.6 °F 94% 29.91 in 5.0 mi East 5.8 mph - N/A Rain Light Rain
4:44 AM 73.4 °F - 69.8 °F 88% 29.92 in 5.0 mi NNE 5.8 mph - N/A Rain Light Rain
5:44 AM 77.0 °F - 69.8 °F 78% 29.92 in 6.0 mi NE 5.8 mph - N/A   Mostly Cloudy
6:44 AM 78.8 °F - 69.8 °F 74% 29.94 in 6.0 mi NE 8.1 mph - N/A   Mostly Cloudy
7:52 AM 80.6 °F 84.6 °F 71.6 °F 74% 29.96 in 6.0 mi ENE 6.9 mph - N/A   Mostly Cloudy
8:45 AM 82.4 °F 87.2 °F 71.6 °F 70% 29.98 in 6.0 mi East 6.9 mph - N/A   Mostly Cloudy
9:43 AM 84.2 °F 89.6 °F 71.6 °F 66% 29.97 in 7.0 mi ENE 9.2 mph - N/A   Mostly Cloudy
10:45 AM 84.2 °F 90.9 °F 73.4 °F 70% 29.96 in 7.0 mi ENE 9.2 mph - N/A   Mostly Cloudy
11:42 AM 84.2 °F 89.6 °F 71.6 °F 66% 29.95 in 7.0 mi East 11.5 mph - N/A   Mostly Cloudy
12:46 PM 82.4 °F 88.2 °F 73.4 °F 74% 29.93 in 7.0 mi East 11.5 mph - N/A   Mostly Cloudy
1:41 PM 82.4 °F 87.2 °F 71.6 °F 70% 29.91 in 7.0 mi ENE 10.4 mph - N/A   Mostly Cloudy
2:46 PM 82.4 °F 88.2 °F 73.4 °F 74% 29.91 in 7.0 mi East 6.9 mph - N/A   Mostly Cloudy
3:46 PM 80.6 °F 85.4 °F 73.4 °F 79% 29.91 in 7.0 mi NE 4.6 mph - N/A   Scattered Clouds
4:45 PM 78.8 °F - 73.4 °F 83% 29.91 in 7.0 mi NE 3.5 mph - N/A   Mostly Cloudy
5:46 PM 77.0 °F - 73.4 °F 89% 29.92 in 7.0 mi NE 3.5 mph - N/A   Scattered Clouds
6:42 PM 78.8 °F - 73.4 °F 83% 29.94 in 7.0 mi ENE 3.5 mph - N/A   Partly Cloudy
7:47 PM 78.8 °F - 73.4 °F 83% 29.95 in 7.0 mi NNE 5.8 mph - N/A   Scattered Clouds
8:48 PM 77.0 °F - 73.4 °F 89% 29.96 in 7.0 mi North 4.6 mph - N/A   Scattered Clouds
9:49 PM 77.0 °F - 71.6 °F 83% 29.96 in 7.0 mi East 6.9 mph - N/A   Scattered Clouds
10:47 PM 75.2 °F - 71.6 °F 89% 29.96 in 7.0 mi WNW 2.3 mph - N/A   Scattered Clouds
11:47 PM 77.0 °F - 73.4 °F 89% 29.94 in 7.0 mi ENE 3.5 mph - N/A   Scattered Clouds